User: anonymous   Login
Location: Unspecified
(0.0000°N, 0.0000°E)
Time: 21:23:51
(UTC+01:00)
Language:

Meteor 2-8 Rocket - Orbit

View from above orbital plane
View from above orbital plane
View from above satellite
View from above satellite

Ground track
Ground track

The orbit data is extracted from the following two-line orbital elements,

1 13114U 82025B   16339.54757515  .00000018  00000-0  31104-5 0  9991
2 13114  82.5392 357.6455 0014055 342.1226 126.9741 13.84657288753479
Epoch (UTC): 04 December 2016 13:08:30
Eccentricity: 0.0014055
inclination: 82.5392°
perigee height: 937 km
apogee height: 958 km
right ascension of ascending node: 357.6455°
argument of perigee: 342.1226°
revolutions per day: 13.84657288
mean anomaly at epoch: 126.9741°
orbit number at epoch: 75347

The dashed part of the orbit path shows where the satellite is in the earth's shadow,  

DLR